Time,TemperatureF,DewpointF,PressureIn,WindDirection,WindDirectionDegrees,WindSpeedMPH,WindSpeedGustMPH,Humidity,HourlyPrecipIn,Conditions,Clouds,dailyrainin,SoftwareType,DateUTC
2013-09-15 00:02:00,60.5,48.4,29.42,ESE,113,0.4,1.3,64,0.00,,,0.00,WUHU216HW,2013-09-15 05:02:00,
2013-09-15 00:07:00,60.8,48.7,29.42,SE,128,0.6,1.6,64,0.00,,,0.00,WUHU216HW,2013-09-15 05:07:00,
2013-09-15 00:12:00,60.8,48.7,29.42,SSW,203,0.7,1.6,64,0.00,,,0.00,WUHU216HW,2013-09-15 05:12:00,
2013-09-15 00:17:00,60.8,48.7,29.42,SE,144,0.6,1.6,64,0.00,,,0.00,WUHU216HW,2013-09-15 05:17:00,
2013-09-15 00:22:00,61.0,48.9,29.42,SSE,158,0.4,1.8,64,0.00,,,0.00,WUHU216HW,2013-09-15 05:22:00,
2013-09-15 00:27:00,61.2,48.7,29.42,NNE,23,1.8,1.8,63,0.00,,,0.00,WUHU216HW,2013-09-15 05:27:00,
2013-09-15 00:32:00,61.2,48.7,29.42,SSE,162,0.5,1.8,63,0.00,,,0.00,WUHU216HW,2013-09-15 05:32:00,
2013-09-15 00:37:00,61.2,48.7,29.42,SSE,158,1.1,1.8,63,0.00,,,0.00,WUHU216HW,2013-09-15 05:37:00,
2013-09-15 00:42:00,61.0,48.9,29.42,SSW,213,0.7,1.8,64,0.00,,,0.00,WUHU216HW,2013-09-15 05:42:00,
2013-09-15 00:47:00,61.0,48.9,29.42,South,180,0.9,1.8,64,0.00,,,0.00,WUHU216HW,2013-09-15 05:47:00,
2013-09-15 00:52:00,60.8,48.7,29.41,ESE,113,0.2,1.8,64,0.00,,,0.00,WUHU216HW,2013-09-15 05:52:00,
2013-09-15 00:57:00,60.8,48.7,29.41,East,97,0.6,1.1,64,0.00,,,0.00,WUHU216HW,2013-09-15 05:57:00,
2013-09-15 01:02:00,60.8,48.7,29.41,ESE,113,1.2,2.9,64,0.00,,,0.00,WUHU216HW,2013-09-15 06:02:00,
2013-09-15 01:07:00,61.0,49.3,29.41,SSW,206,1.9,2.9,65,0.00,,,0.00,WUHU216HW,2013-09-15 06:07:00,
2013-09-15 01:12:00,61.2,49.1,29.41,ESE,110,0.7,2.5,64,0.00,,,0.00,WUHU216HW,2013-09-15 06:12:00,
2013-09-15 01:17:00,61.2,49.1,29.41,ENE,68,1.0,2.7,64,0.00,,,0.00,WUHU216HW,2013-09-15 06:17:00,
2013-09-15 01:22:00,61.2,49.1,29.41,ESE,113,1.4,2.7,64,0.00,,,0.00,WUHU216HW,2013-09-15 06:22:00,
2013-09-15 01:27:00,61.2,49.1,29.41,ESE,113,2.2,2.5,64,0.00,,,0.00,WUHU216HW,2013-09-15 06:27:00,
2013-09-15 01:32:00,61.6,49.1,29.41,SW,225,2.9,4.0,63,0.00,,,0.00,WUHU216HW,2013-09-15 06:32:00,
2013-09-15 01:37:00,61.6,48.6,29.40,South,180,1.5,4.0,62,0.00,,,0.00,WUHU216HW,2013-09-15 06:37:00,
2013-09-15 01:42:00,61.6,48.6,29.40,SSE,152,1.1,3.4,62,0.00,,,0.00,WUHU216HW,2013-09-15 06:42:00,
2013-09-15 01:47:00,61.6,48.6,29.40,South,178,2.0,3.6,62,0.00,,,0.00,WUHU216HW,2013-09-15 06:47:00,
2013-09-15 01:52:00,61.4,48.5,29.40,SSW,200,2.0,3.6,62,0.00,,,0.00,WUHU216HW,2013-09-15 06:52:00,
2013-09-15 01:57:00,61.2,48.7,29.40,West,281,1.4,3.4,63,0.00,,,0.00,WUHU216HW,2013-09-15 06:57:00,
2013-09-15 02:02:00,61.0,48.5,29.40,SSW,210,1.9,3.4,63,0.00,,,0.00,WUHU216HW,2013-09-15 07:02:00,
2013-09-15 02:07:00,61.0,48.1,29.40,ESE,113,2.2,3.4,62,0.00,,,0.00,WUHU216HW,2013-09-15 07:07:00,
2013-09-15 02:12:00,61.0,48.1,29.40,SE,128,1.6,2.5,62,0.00,,,0.00,WUHU216HW,2013-09-15 07:12:00,
2013-09-15 02:17:00,61.2,48.3,29.40,South,180,1.6,3.4,62,0.00,,,0.00,WUHU216HW,2013-09-15 07:17:00,
2013-09-15 02:22:00,61.4,48.0,29.40,NNE,23,3.4,3.4,61,0.00,,,0.00,WUHU216HW,2013-09-15 07:22:00,
2013-09-15 02:27:00,61.6,48.2,29.40,SE,135,2.5,3.6,61,0.00,,,0.00,WUHU216HW,2013-09-15 07:27:00,
2013-09-15 02:32:00,61.7,47.9,29.40,SE,135,1.8,3.6,60,0.00,,,0.00,WUHU216HW,2013-09-15 07:32:00,
2013-09-15 02:37:00,61.7,47.9,29.40,SSW,213,1.6,2.9,60,0.00,,,0.00,WUHU216HW,2013-09-15 07:37:00,
2013-09-15 02:42:00,61.9,48.0,29.40,ESE,118,1.6,3.6,60,0.00,,,0.00,WUHU216HW,2013-09-15 07:42:00,
2013-09-15 02:47:00,61.9,48.0,29.40,North,0,1.1,3.6,60,0.00,,,0.00,WUHU216HW,2013-09-15 07:47:00,
2013-09-15 02:52:00,61.9,48.0,29.40,ENE,68,2.0,3.1,60,0.00,,,0.00,WUHU216HW,2013-09-15 07:52:00,
2013-09-15 02:57:00,62.1,48.2,29.39,SE,134,1.7,2.9,60,0.00,,,0.00,WUHU216HW,2013-09-15 07:57:00,
2013-09-15 03:02:00,62.1,48.2,29.39,SW,225,2.5,2.9,60,0.00,,,0.00,WUHU216HW,2013-09-15 08:02:00,
2013-09-15 03:07:00,61.9,48.0,29.39,ESE,110,2.0,2.5,60,0.00,,,0.00,WUHU216HW,2013-09-15 08:07:00,
2013-09-15 03:12:00,61.9,48.0,29.39,South,190,1.1,3.1,60,0.00,,,0.00,WUHU216HW,2013-09-15 08:12:00,
2013-09-15 03:17:00,61.9,48.0,29.39,SE,135,2.0,3.4,60,0.00,,,0.00,WUHU216HW,2013-09-15 08:17:00,
2013-09-15 03:22:00,61.7,47.9,29.39,SE,135,1.8,3.4,60,0.00,,,0.00,WUHU216HW,2013-09-15 08:22:00,
2013-09-15 03:27:00,61.6,48.2,29.39,SE,143,1.0,2.7,61,0.00,,,0.00,WUHU216HW,2013-09-15 08:27:00,
2013-09-15 03:32:00,61.6,48.2,29.39,SSE,158,1.8,2.9,61,0.00,,,0.00,WUHU216HW,2013-09-15 08:32:00,
2013-09-15 03:37:00,61.6,48.2,29.39,SSE,160,2.4,3.6,61,0.00,,,0.00,WUHU216HW,2013-09-15 08:37:00,
2013-09-15 03:42:00,61.7,48.3,29.39,West,270,1.8,3.6,61,0.00,,,0.00,WUHU216HW,2013-09-15 08:42:00,
2013-09-15 03:47:00,61.7,47.9,29.39,SW,225,2.7,2.7,60,0.00,,,0.00,WUHU216HW,2013-09-15 08:47:00,
2013-09-15 03:52:00,61.9,48.0,29.39,ESE,111,1.3,2.7,60,0.00,,,0.00,WUHU216HW,2013-09-15 08:52:00,
2013-09-15 03:57:00,61.9,48.0,29.39,SSW,203,1.6,2.9,60,0.00,,,0.00,WUHU216HW,2013-09-15 08:57:00,
2013-09-15 04:02:00,62.1,47.8,29.39,South,172,1.3,2.9,59,0.00,,,0.00,WUHU216HW,2013-09-15 09:02:00,
2013-09-15 04:07:00,62.3,48.0,29.39,WSW,247,0.9,2.5,59,0.00,,,0.00,WUHU216HW,2013-09-15 09:07:00,
2013-09-15 04:12:00,62.3,48.4,29.39,SE,145,1.4,2.5,60,0.00,,,0.00,WUHU216HW,2013-09-15 09:12:00,
2013-09-15 04:17:00,61.9,48.9,29.39,ENE,69,2.7,4.7,62,0.00,,,0.00,WUHU216HW,2013-09-15 09:17:00,
2013-09-15 04:22:00,61.6,48.6,29.40,WSW,248,1.1,4.7,62,0.00,,,0.00,WUHU216HW,2013-09-15 09:22:00,
2013-09-15 04:27:00,61.6,49.1,29.40,ENE,68,1.8,1.8,63,0.00,,,0.00,WUHU216HW,2013-09-15 09:27:00,
2013-09-15 04:32:00,61.7,49.2,29.40,ENE,71,1.0,1.8,63,0.00,,,0.00,WUHU216HW,2013-09-15 09:32:00,
2013-09-15 04:37:00,61.7,49.2,29.40,NE,45,0.2,1.8,63,0.00,,,0.00,WUHU216HW,2013-09-15 09:37:00,
2013-09-15 04:42:00,61.7,49.6,29.40,ENE,68,0.7,0.9,64,0.00,,,0.00,WUHU216HW,2013-09-15 09:42:00,
2013-09-15 04:47:00,61.7,49.2,29.40,ENE,74,1.4,1.8,63,0.00,,,0.00,WUHU216HW,2013-09-15 09:47:00,
2013-09-15 04:52:00,61.9,49.4,29.40,ENE,68,1.6,1.8,63,0.00,,,0.00,WUHU216HW,2013-09-15 09:52:00,
2013-09-15 04:57:00,62.1,49.5,29.39,East,97,2.0,2.5,63,0.00,,,0.00,WUHU216HW,2013-09-15 09:57:00,
2013-09-15 05:02:00,62.3,49.7,29.39,ENE,72,2.2,3.4,63,0.00,,,0.00,WUHU216HW,2013-09-15 10:02:00,
2013-09-15 05:07:00,62.3,49.3,29.38,ENE,64,1.4,3.4,62,0.00,,,0.00,WUHU216HW,2013-09-15 10:07:00,
2013-09-15 05:12:00,62.3,49.7,29.38,ENE,69,1.1,2.9,63,0.00,,,0.00,WUHU216HW,2013-09-15 10:12:00,
2013-09-15 05:17:00,62.1,49.5,29.39,ENE,68,0.4,2.5,63,0.00,,,0.00,WUHU216HW,2013-09-15 10:17:00,
2013-09-15 05:22:00,62.1,50.0,29.39,NE,54,0.3,1.3,64,0.00,,,0.00,WUHU216HW,2013-09-15 10:22:00,
2013-09-15 05:27:00,62.1,50.4,29.39,SE,135,1.8,2.5,65,0.00,,,0.00,WUHU216HW,2013-09-15 10:27:00,
2013-09-15 05:32:00,62.1,50.4,29.39,East,90,1.5,2.5,65,0.00,,,0.00,WUHU216HW,2013-09-15 10:32:00,
2013-09-15 05:37:00,61.9,49.8,29.39,East,90,2.5,2.5,64,0.00,,,0.00,WUHU216HW,2013-09-15 10:37:00,
2013-09-15 05:42:00,61.7,49.6,29.39,ENE,65,2.8,3.4,64,0.00,,,0.00,WUHU216HW,2013-09-15 10:42:00,
2013-09-15 05:47:00,61.6,49.9,29.39,SE,135,1.1,3.4,65,0.00,,,0.00,WUHU216HW,2013-09-15 10:47:00,
2013-09-15 05:52:00,61.6,49.9,29.39,ENE,58,1.5,2.7,65,0.00,,,0.00,WUHU216HW,2013-09-15 10:52:00,
2013-09-15 05:57:00,61.6,49.9,29.40,East,85,0.8,2.2,65,0.00,,,0.00,WUHU216HW,2013-09-15 10:57:00,
2013-09-15 06:02:00,61.6,49.9,29.40,NE,46,0.3,2.2,65,0.00,,,0.00,WUHU216HW,2013-09-15 11:02:00,
2013-09-15 06:07:00,61.6,50.3,29.40,NE,45,0.9,1.3,66,0.00,,,0.00,WUHU216HW,2013-09-15 11:07:00,
2013-09-15 06:12:00,61.6,50.3,29.40,ENE,68,1.1,1.1,66,0.00,,,0.00,WUHU216HW,2013-09-15 11:12:00,
2013-09-15 06:17:00,61.4,50.1,29.40,ENE,68,1.1,1.8,66,0.00,,,0.00,WUHU216HW,2013-09-15 11:17:00,
2013-09-15 06:22:00,61.4,50.9,29.40,ENE,68,1.6,1.8,68,0.00,,,0.00,WUHU216HW,2013-09-15 11:22:00,
2013-09-15 06:27:00,61.0,50.5,29.40,ENE,58,1.2,3.1,68,0.00,,,0.00,WUHU216HW,2013-09-15 11:27:00,
2013-09-15 06:32:00,60.8,50.7,29.40,North,357,0.3,3.1,69,0.00,,,0.00,WUHU216HW,2013-09-15 11:32:00,
2013-09-15 06:37:00,60.3,51.0,29.41,NNE,23,0.4,1.1,71,0.00,,,0.00,WUHU216HW,2013-09-15 11:37:00,
2013-09-15 06:42:00,59.6,51.1,29.41,NW,308,0.3,0.7,73,0.00,,,0.00,WUHU216HW,2013-09-15 11:42:00,
2013-09-15 06:47:00,59.0,51.2,29.41,East,90,0.4,0.7,75,0.00,,,0.00,WUHU216HW,2013-09-15 11:47:00,
2013-09-15 06:52:00,58.7,51.3,29.42,WNW,293,0.0,0.7,76,0.00,,,0.00,WUHU216HW,2013-09-15 11:52:00,
2013-09-15 06:57:00,58.1,51.7,29.41,NE,45,1.1,1.1,79,0.00,,,0.00,WUHU216HW,2013-09-15 11:57:00,
2013-09-15 07:02:00,57.8,51.8,29.41,ENE,68,1.6,1.6,80,0.00,,,0.00,WUHU216HW,2013-09-15 12:02:00,
2013-09-15 07:07:00,57.4,52.0,29.41,ESE,102,0.5,2.2,82,0.01,,,0.01,WUHU216HW,2013-09-15 12:07:00,
2013-09-15 07:12:00,57.2,52.1,29.41,East,81,1.5,2.5,83,0.01,,,0.01,WUHU216HW,2013-09-15 12:12:00,
2013-09-15 07:17:00,57.2,52.5,29.40,ENE,61,0.8,2.5,84,0.01,,,0.01,WUHU216HW,2013-09-15 12:17:00,
2013-09-15 07:22:00,57.2,52.5,29.40,ENE,72,1.0,1.8,84,0.01,,,0.01,WUHU216HW,2013-09-15 12:22:00,
2013-09-15 07:27:00,57.2,52.5,29.40,East,90,0.7,1.8,84,0.01,,,0.01,WUHU216HW,2013-09-15 12:27:00,
2013-09-15 07:32:00,57.2,52.8,29.40,East,90,1.8,1.8,85,0.02,,,0.02,WUHU216HW,2013-09-15 12:32:00,
2013-09-15 07:37:00,57.2,52.8,29.40,East,90,1.8,1.8,85,0.03,,,0.03,WUHU216HW,2013-09-15 12:37:00,
2013-09-15 07:42:00,57.2,52.8,29.40,WSW,247,0.6,1.8,85,0.07,,,0.07,WUHU216HW,2013-09-15 12:42:00,
2013-09-15 07:47:00,56.9,52.8,29.39,NNE,23,2.0,2.7,86,0.09,,,0.09,WUHU216HW,2013-09-15 12:47:00,
2013-09-15 07:52:00,56.9,52.8,29.39,East,90,0.3,3.6,86,0.13,,,0.13,WUHU216HW,2013-09-15 12:52:00,
2013-09-15 07:57:00,56.7,52.6,29.39,SE,135,0.4,3.6,86,0.19,,,0.19,WUHU216HW,2013-09-15 12:57:00,
2013-09-15 08:02:00,56.5,52.7,29.39,ESE,113,1.1,1.1,87,0.22,,,0.22,WUHU216HW,2013-09-15 13:02:00,
2013-09-15 08:07:00,56.5,52.7,29.39,SSW,193,0.7,1.8,87,0.21,,,0.22,WUHU216HW,2013-09-15 13:07:00,
2013-09-15 08:12:00,56.5,52.7,29.38,ENE,70,0.5,1.8,87,0.21,,,0.22,WUHU216HW,2013-09-15 13:12:00,
2013-09-15 08:17:00,56.5,53.0,29.38,ESE,115,0.9,1.3,88,0.21,,,0.22,WUHU216HW,2013-09-15 13:17:00,
2013-09-15 08:22:00,56.7,53.5,29.38,East,100,0.9,1.3,89,0.21,,,0.22,WUHU216HW,2013-09-15 13:22:00,
2013-09-15 08:27:00,57.1,53.9,29.37,SSW,203,1.3,1.3,89,0.21,,,0.22,WUHU216HW,2013-09-15 13:27:00,
2013-09-15 08:32:00,57.2,54.0,29.37,WSW,248,0.7,1.8,89,0.19,,,0.22,WUHU216HW,2013-09-15 13:32:00,
2013-09-15 08:37:00,57.4,53.9,29.38,SSW,205,1.3,2.2,88,0.17,,,0.22,WUHU216HW,2013-09-15 13:37:00,
2013-09-15 08:42:00,57.6,54.1,29.39,West,270,1.1,2.2,88,0.13,,,0.22,WUHU216HW,2013-09-15 13:42:00,
2013-09-15 08:47:00,57.4,53.9,29.39,ENE,68,0.9,1.3,88,0.14,,,0.23,WUHU216HW,2013-09-15 13:47:00,
2013-09-15 08:52:00,57.2,53.4,29.38,NE,45,1.3,1.8,87,0.13,,,0.29,WUHU216HW,2013-09-15 13:52:00,
2013-09-15 08:57:00,57.1,53.3,29.38,NE,45,0.4,1.8,87,0.10,,,0.30,WUHU216HW,2013-09-15 13:57:00,
2013-09-15 09:02:00,56.9,53.4,29.39,SW,225,0.7,1.3,88,0.08,,,0.30,WUHU216HW,2013-09-15 14:02:00,
2013-09-15 09:07:00,56.9,53.7,29.39,SE,135,0.5,1.6,89,0.09,,,0.31,WUHU216HW,2013-09-15 14:07:00,
2013-09-15 09:12:00,56.9,53.7,29.39,SE,144,0.4,2.2,89,0.16,,,0.38,WUHU216HW,2013-09-15 14:12:00,
2013-09-15 09:17:00,57.1,53.9,29.39,SE,135,0.0,2.2,89,0.16,,,0.38,WUHU216HW,2013-09-15 14:17:00,
2013-09-15 09:22:00,57.2,54.0,29.39,WSW,248,0.0,0.0,89,0.17,,,0.39,WUHU216HW,2013-09-15 14:22:00,
2013-09-15 09:27:00,57.6,54.4,29.39,East,90,0.2,0.2,89,0.17,,,0.39,WUHU216HW,2013-09-15 14:27:00,
2013-09-15 09:32:00,57.6,54.4,29.39,South,189,0.3,0.4,89,0.17,,,0.39,WUHU216HW,2013-09-15 14:32:00,
2013-09-15 09:37:00,57.8,54.9,29.39,SW,223,0.9,0.9,90,0.17,,,0.39,WUHU216HW,2013-09-15 14:37:00,
2013-09-15 09:42:00,58.0,55.1,29.39,ESE,113,0.2,0.9,90,0.17,,,0.39,WUHU216HW,2013-09-15 14:42:00,
2013-09-15 09:47:00,58.1,55.2,29.39,SE,141,0.5,1.1,90,0.16,,,0.39,WUHU216HW,2013-09-15 14:47:00,
2013-09-15 09:52:00,58.3,55.7,29.39,SE,135,0.5,1.6,91,0.09,,,0.39,WUHU216HW,2013-09-15 14:52:00,
2013-09-15 09:57:00,58.3,55.7,29.39,South,180,1.1,1.6,91,0.09,,,0.39,WUHU216HW,2013-09-15 14:57:00,
2013-09-15 10:02:00,58.5,55.6,29.39,ENE,70,0.4,1.1,90,0.08,,,0.39,WUHU216HW,2013-09-15 15:02:00,
2013-09-15 10:07:00,58.5,55.6,29.39,ESE,113,1.8,1.8,90,0.10,,,0.42,WUHU216HW,2013-09-15 15:07:00,
2013-09-15 10:12:00,58.7,55.8,29.39,SE,145,0.4,1.8,90,0.03,,,0.42,WUHU216HW,2013-09-15 15:12:00,
2013-09-15 10:17:00,58.7,56.1,29.40,SSW,205,2.3,3.1,91,0.03,,,0.42,WUHU216HW,2013-09-15 15:17:00,
2013-09-15 10:22:00,58.5,55.6,29.39,SE,140,0.7,3.1,90,0.03,,,0.42,WUHU216HW,2013-09-15 15:22:00,
2013-09-15 10:27:00,58.7,56.1,29.40,SW,225,1.3,1.8,91,0.04,,,0.44,WUHU216HW,2013-09-15 15:27:00,
2013-09-15 10:32:00,58.7,56.1,29.39,SSE,165,0.9,2.2,91,0.04,,,0.44,WUHU216HW,2013-09-15 15:32:00,
2013-09-15 10:37:00,58.7,56.1,29.39,SSE,163,1.2,2.2,91,0.04,,,0.44,WUHU216HW,2013-09-15 15:37:00,
2013-09-15 10:42:00,58.9,56.3,29.40,East,97,1.0,1.8,91,0.04,,,0.44,WUHU216HW,2013-09-15 15:42:00,
2013-09-15 10:47:00,59.0,56.4,29.39,SE,134,0.6,1.6,91,0.04,,,0.44,WUHU216HW,2013-09-15 15:47:00,
2013-09-15 10:52:00,59.4,56.8,29.39,SW,225,2.5,2.5,91,0.04,,,0.44,WUHU216HW,2013-09-15 15:52:00,
2013-09-15 10:57:00,59.4,56.8,29.39,South,180,1.1,2.5,91,0.04,,,0.44,WUHU216HW,2013-09-15 15:57:00,
2013-09-15 11:02:00,59.8,57.2,29.39,South,180,1.1,2.5,91,0.03,,,0.44,WUHU216HW,2013-09-15 16:02:00,
2013-09-15 11:07:00,60.3,57.7,29.39,SE,129,1.4,1.8,91,0.02,,,0.44,WUHU216HW,2013-09-15 16:07:00,
2013-09-15 11:12:00,60.8,58.2,29.40,SW,225,1.1,1.8,91,0.01,,,0.44,WUHU216HW,2013-09-15 16:12:00,
2013-09-15 11:17:00,61.0,58.0,29.40,SSE,158,0.9,1.8,90,0.01,,,0.44,WUHU216HW,2013-09-15 16:17:00,
2013-09-15 11:22:00,60.8,57.5,29.40,South,184,0.5,1.8,89,0.01,,,0.44,WUHU216HW,2013-09-15 16:22:00,
2013-09-15 11:27:00,60.7,57.4,29.41,SSW,206,0.6,1.3,89,0.00,,,0.44,WUHU216HW,2013-09-15 16:27:00,
2013-09-15 11:32:00,60.7,57.8,29.40,ESE,123,0.8,1.3,90,0.00,,,0.44,WUHU216HW,2013-09-15 16:32:00,
2013-09-15 11:37:00,60.8,57.9,29.40,SE,140,0.6,1.1,90,0.00,,,0.44,WUHU216HW,2013-09-15 16:37:00,
2013-09-15 11:42:00,60.8,57.9,29.40,SSE,158,0.2,1.8,90,0.00,,,0.44,WUHU216HW,2013-09-15 16:42:00,
2013-09-15 11:47:00,61.0,58.0,29.40,South,186,1.1,2.0,90,0.00,,,0.44,WUHU216HW,2013-09-15 16:47:00,
2013-09-15 11:52:00,61.6,58.6,29.40,ESE,113,0.7,2.0,90,0.00,,,0.44,WUHU216HW,2013-09-15 16:52:00,
2013-09-15 11:57:00,61.9,58.6,29.40,WSW,248,1.1,1.3,89,0.00,,,0.44,WUHU216HW,2013-09-15 16:57:00,
2013-09-15 12:02:00,62.5,59.2,29.39,SE,135,0.3,1.3,89,0.00,,,0.44,WUHU216HW,2013-09-15 17:02:00,
2013-09-15 12:07:00,63.0,59.4,29.39,East,90,0.4,1.3,88,0.00,,,0.44,WUHU216HW,2013-09-15 17:07:00,
2013-09-15 12:12:00,63.7,60.1,29.39,SSW,203,1.1,1.8,88,0.00,,,0.44,WUHU216HW,2013-09-15 17:12:00,
2013-09-15 12:17:00,65.2,60.9,29.39,SSW,202,1.4,2.0,86,0.00,,,0.44,WUHU216HW,2013-09-15 17:17:00,
2013-09-15 12:22:00,66.4,61.5,29.39,South,171,1.9,2.5,84,0.00,,,0.44,WUHU216HW,2013-09-15 17:22:00,
2013-09-15 12:27:00,66.6,61.3,29.40,ESE,106,1.3,2.5,83,0.00,,,0.44,WUHU216HW,2013-09-15 17:27:00,
2013-09-15 12:32:00,66.8,61.5,29.39,SSE,163,1.2,2.5,83,0.00,,,0.44,WUHU216HW,2013-09-15 17:32:00,
2013-09-15 12:37:00,66.8,61.5,29.40,SW,225,0.7,2.5,83,0.00,,,0.44,WUHU216HW,2013-09-15 17:37:00,
2013-09-15 12:42:00,66.6,61.7,29.40,SSW,203,1.3,1.8,84,0.00,,,0.44,WUHU216HW,2013-09-15 17:42:00,
2013-09-15 12:47:00,66.8,61.5,29.40,SW,225,1.1,1.3,83,0.00,,,0.44,WUHU216HW,2013-09-15 17:47:00,
2013-09-15 12:52:00,67.0,61.7,29.40,ENE,68,0.4,1.1,83,0.00,,,0.44,WUHU216HW,2013-09-15 17:52:00,
2013-09-15 12:57:00,67.3,62.4,29.40,SW,225,0.7,0.7,84,0.00,,,0.44,WUHU216HW,2013-09-15 17:57:00,
2013-09-15 13:02:00,67.3,62.0,29.40,NW,315,0.4,0.9,83,0.00,,,0.44,WUHU216HW,2013-09-15 18:02:00,
2013-09-15 13:07:00,67.5,62.2,29.40,NW,315,0.0,1.1,83,0.00,,,0.44,WUHU216HW,2013-09-15 18:07:00,
2013-09-15 13:12:00,67.7,62.8,29.41,West,270,0.0,1.1,84,0.00,,,0.44,WUHU216HW,2013-09-15 18:12:00,
2013-09-15 13:17:00,67.7,62.8,29.42,SE,135,0.0,0.0,84,0.00,,,0.44,WUHU216HW,2013-09-15 18:17:00,
2013-09-15 13:22:00,67.3,62.4,29.41,SW,225,0.0,0.0,84,0.00,,,0.44,WUHU216HW,2013-09-15 18:22:00,
2013-09-15 13:27:00,67.1,62.2,29.42,NW,315,0.0,0.0,84,0.00,,,0.44,WUHU216HW,2013-09-15 18:27:00,
2013-09-15 13:32:00,67.0,62.1,29.42,ENE,68,0.0,0.2,84,0.00,,,0.44,WUHU216HW,2013-09-15 18:32:00,
2013-09-15 13:37:00,66.8,61.9,29.41,ENE,68,0.0,0.2,84,0.00,,,0.44,WUHU216HW,2013-09-15 18:37:00,
2013-09-15 13:42:00,67.0,62.4,29.41,NW,315,0.0,0.0,85,0.00,,,0.44,WUHU216HW,2013-09-15 18:42:00,
2013-09-15 13:47:00,67.0,62.4,29.42,NW,315,0.0,0.0,85,0.00,,,0.44,WUHU216HW,2013-09-15 18:47:00,
2013-09-15 13:52:00,66.6,62.0,29.42,WSW,248,0.0,0.0,85,0.00,,,0.44,WUHU216HW,2013-09-15 18:52:00,
2013-09-15 13:57:00,66.4,62.1,29.42,WSW,248,0.0,0.0,86,0.00,,,0.44,WUHU216HW,2013-09-15 18:57:00,
2013-09-15 14:02:00,66.1,61.8,29.42,SE,135,0.0,0.0,86,0.00,,,0.44,WUHU216HW,2013-09-15 19:02:00,
2013-09-15 14:07:00,65.9,62.3,29.42,WSW,248,0.0,0.0,88,0.00,,,0.44,WUHU216HW,2013-09-15 19:07:00,
2013-09-15 14:12:00,65.9,62.6,29.42,SW,225,0.0,0.0,89,0.01,,,0.44,WUHU216HW,2013-09-15 19:12:00,
2013-09-15 14:17:00,65.5,62.2,29.42,SSE,158,0.2,0.2,89,0.04,,,0.48,WUHU216HW,2013-09-15 19:17:00,
2013-09-15 14:18:00,65.5,62.2,29.42,NNE,23,0.0,0.2,89,0.04,,,0.48,WUHU216HW,2013-09-15 19:18:00,
2013-09-15 14:23:00,65.2,61.9,29.42,North,0,1.1,1.8,89,0.07,,,0.51,WUHU216HW,2013-09-15 19:23:00,
2013-09-15 14:28:00,65.0,61.4,29.42,West,270,0.2,1.8,88,0.09,,,0.53,WUHU216HW,2013-09-15 19:28:00,
2013-09-15 14:33:00,64.6,61.3,29.42,North,0,0.4,1.1,89,0.11,,,0.55,WUHU216HW,2013-09-15 19:33:00,
2013-09-15 14:38:00,64.4,61.4,29.43,WNW,303,0.5,1.3,90,0.14,,,0.58,WUHU216HW,2013-09-15 19:38:00,
2013-09-15 14:43:00,64.3,61.3,29.42,West,270,0.2,1.3,90,0.15,,,0.59,WUHU216HW,2013-09-15 19:43:00,
2013-09-15 14:48:00,64.1,61.1,29.42,NW,316,1.7,2.5,90,0.18,,,0.62,WUHU216HW,2013-09-15 19:48:00,
2013-09-15 14:53:00,63.7,60.7,29.43,ENE,68,0.0,2.5,90,0.19,,,0.63,WUHU216HW,2013-09-15 19:53:00,
2013-09-15 14:58:00,63.7,60.7,29.43,WNW,286,0.6,0.9,90,0.21,,,0.65,WUHU216HW,2013-09-15 19:58:00,
2013-09-15 15:03:00,63.7,60.7,29.43,SSW,203,0.0,0.9,90,0.22,,,0.66,WUHU216HW,2013-09-15 20:03:00,
2013-09-15 15:08:00,63.7,61.0,29.43,SW,225,0.4,0.9,91,0.21,,,0.66,WUHU216HW,2013-09-15 20:08:00,
2013-09-15 15:13:00,63.7,60.7,29.43,North,0,0.0,0.9,90,0.19,,,0.66,WUHU216HW,2013-09-15 20:13:00,
2013-09-15 15:18:00,63.9,61.2,29.44,East,90,0.0,0.7,91,0.16,,,0.66,WUHU216HW,2013-09-15 20:18:00,
2013-09-15 15:23:00,64.1,61.1,29.44,East,80,0.5,0.9,90,0.15,,,0.66,WUHU216HW,2013-09-15 20:23:00,
2013-09-15 15:28:00,63.9,61.2,29.44,ENE,63,0.6,0.9,91,0.12,,,0.66,WUHU216HW,2013-09-15 20:28:00,
2013-09-15 15:33:00,63.7,61.0,29.44,NW,315,1.1,1.1,91,0.09,,,0.66,WUHU216HW,2013-09-15 20:33:00,
2013-09-15 15:38:00,63.7,61.0,29.44,ESE,113,0.7,1.1,91,0.08,,,0.66,WUHU216HW,2013-09-15 20:38:00,
2013-09-15 15:43:00,64.3,61.6,29.44,East,90,0.2,1.1,91,0.07,,,0.66,WUHU216HW,2013-09-15 20:43:00,
2013-09-15 15:48:00,64.4,61.7,29.45,ESE,113,1.8,1.8,91,0.03,,,0.66,WUHU216HW,2013-09-15 20:48:00,
2013-09-15 15:53:00,64.1,61.1,29.45,ENE,78,0.9,2.0,90,0.02,,,0.66,WUHU216HW,2013-09-15 20:53:00,
2013-09-15 15:58:00,63.9,60.9,29.46,SE,141,0.6,2.0,90,0.00,,,0.66,WUHU216HW,2013-09-15 20:58:00,
2013-09-15 16:03:00,63.9,60.9,29.46,ESE,113,0.0,1.3,90,0.00,,,0.66,WUHU216HW,2013-09-15 21:03:00,
2013-09-15 16:08:00,64.8,61.8,29.46,West,270,0.4,1.3,90,0.00,,,0.66,WUHU216HW,2013-09-15 21:08:00,
2013-09-15 16:13:00,65.0,61.7,29.46,ESE,113,3.6,3.6,89,0.00,,,0.66,WUHU216HW,2013-09-15 21:13:00,
2013-09-15 16:18:00,64.8,61.2,29.47,ESE,113,1.3,3.6,88,0.00,,,0.66,WUHU216HW,2013-09-15 21:18:00,
2013-09-15 16:23:00,65.2,61.6,29.47,ENE,68,1.8,2.5,88,0.00,,,0.66,WUHU216HW,2013-09-15 21:23:00,
2013-09-15 16:28:00,65.2,61.3,29.47,East,83,0.5,2.5,87,0.00,,,0.66,WUHU216HW,2013-09-15 21:28:00,
2013-09-15 16:33:00,65.0,60.7,29.47,NNE,32,1.9,4.3,86,0.00,,,0.66,WUHU216HW,2013-09-15 21:33:00,
2013-09-15 16:38:00,64.6,60.7,29.47,ENE,68,0.3,4.3,87,0.00,,,0.66,WUHU216HW,2013-09-15 21:38:00,
2013-09-15 16:43:00,64.4,60.5,29.47,ENE,68,1.8,1.8,87,0.00,,,0.66,WUHU216HW,2013-09-15 21:43:00,
2013-09-15 16:48:00,64.3,60.4,29.48,NE,51,1.2,1.8,87,0.00,,,0.66,WUHU216HW,2013-09-15 21:48:00,
2013-09-15 16:53:00,64.3,60.4,29.48,ESE,113,1.1,3.4,87,0.00,,,0.66,WUHU216HW,2013-09-15 21:53:00,
2013-09-15 16:58:00,64.1,60.2,29.49,SW,225,0.3,3.4,87,0.00,,,0.66,WUHU216HW,2013-09-15 21:58:00,
2013-09-15 17:03:00,64.3,60.4,29.49,ENE,68,0.7,1.8,87,0.00,,,0.66,WUHU216HW,2013-09-15 22:03:00,
2013-09-15 17:08:00,64.3,60.4,29.49,ESE,113,0.9,1.8,87,0.00,,,0.66,WUHU216HW,2013-09-15 22:08:00,
2013-09-15 17:13:00,64.4,60.5,29.49,NE,45,0.5,1.8,87,0.00,,,0.66,WUHU216HW,2013-09-15 22:13:00,
2013-09-15 17:18:00,64.4,60.2,29.50,NNE,14,1.1,2.5,86,0.00,,,0.66,WUHU216HW,2013-09-15 22:18:00,
2013-09-15 17:23:00,64.4,60.2,29.50,SE,135,1.1,2.5,86,0.00,,,0.66,WUHU216HW,2013-09-15 22:23:00,
2013-09-15 17:28:00,64.1,60.2,29.50,NE,45,0.9,1.1,87,0.00,,,0.66,WUHU216HW,2013-09-15 22:28:00,
2013-09-15 17:33:00,63.9,60.0,29.50,East,90,0.7,1.1,87,0.00,,,0.66,WUHU216HW,2013-09-15 22:33:00,
2013-09-15 17:38:00,63.7,59.8,29.50,ESE,113,1.6,1.6,87,0.00,,,0.66,WUHU216HW,2013-09-15 22:38:00,
2013-09-15 17:43:00,63.5,59.6,29.50,NE,53,0.4,1.6,87,0.00,,,0.66,WUHU216HW,2013-09-15 22:43:00,
2013-09-15 17:48:00,63.4,59.8,29.51,NNW,338,0.7,1.1,88,0.00,,,0.66,WUHU216HW,2013-09-15 22:48:00,
2013-09-15 17:53:00,63.2,58.7,29.51,NE,41,3.0,3.8,85,0.00,,,0.66,WUHU216HW,2013-09-15 22:53:00,
2013-09-15 17:58:00,63.0,58.5,29.51,ENE,68,3.1,6.7,85,0.00,,,0.66,WUHU216HW,2013-09-15 22:58:00,
2013-09-15 18:03:00,63.0,58.5,29.52,NNE,23,2.5,6.7,85,0.00,,,0.66,WUHU216HW,2013-09-15 23:03:00,
2013-09-15 18:08:00,62.8,58.6,29.52,ENE,68,1.1,3.1,86,0.00,,,0.66,WUHU216HW,2013-09-15 23:08:00,
2013-09-15 18:13:00,62.6,58.4,29.52,ESE,113,1.8,2.5,86,0.00,,,0.66,WUHU216HW,2013-09-15 23:13:00,
2013-09-15 18:18:00,62.6,58.4,29.53,NE,45,4.0,4.0,86,0.00,,,0.66,WUHU216HW,2013-09-15 23:18:00,
2013-09-15 18:23:00,62.6,58.4,29.53,ESE,103,1.0,4.0,86,0.00,,,0.66,WUHU216HW,2013-09-15 23:23:00,
2013-09-15 18:28:00,62.6,58.4,29.53,NNE,18,0.8,4.0,86,0.00,,,0.66,WUHU216HW,2013-09-15 23:28:00,
2013-09-15 18:33:00,62.6,58.4,29.53,NNW,346,0.6,1.8,86,0.00,,,0.66,WUHU216HW,2013-09-15 23:33:00,
2013-09-15 18:38:00,62.5,58.3,29.53,ENE,68,0.9,1.8,86,0.00,,,0.66,WUHU216HW,2013-09-15 23:38:00,
2013-09-15 18:43:00,62.5,58.3,29.53,NE,45,1.6,1.8,86,0.00,,,0.66,WUHU216HW,2013-09-15 23:43:00,
2013-09-15 18:48:00,62.3,58.1,29.54,ENE,64,1.0,2.2,86,0.00,,,0.66,WUHU216HW,2013-09-15 23:48:00,
2013-09-15 18:53:00,62.3,58.1,29.54,ENE,68,2.0,2.2,86,0.00,,,0.66,WUHU216HW,2013-09-15 23:53:00,
2013-09-15 18:58:00,62.3,58.1,29.54,NE,56,1.4,2.5,86,0.00,,,0.66,WUHU216HW,2013-09-15 23:58:00,
2013-09-15 19:03:00,62.3,58.1,29.54,NE,45,0.7,2.5,86,0.00,,,0.66,WUHU216HW,2013-09-16 00:03:00,
2013-09-15 19:08:00,61.9,57.7,29.55,East,87,0.2,1.8,86,0.00,,,0.66,WUHU216HW,2013-09-16 00:08:00,
2013-09-15 19:13:00,61.7,57.5,29.55,ENE,68,0.0,0.2,86,0.00,,,0.66,WUHU216HW,2013-09-16 00:13:00,
2013-09-15 19:18:00,61.7,57.5,29.55,NNE,23,0.4,0.9,86,0.00,,,0.66,WUHU216HW,2013-09-16 00:18:00,
2013-09-15 19:23:00,61.6,57.7,29.55,NE,45,2.2,2.2,87,0.00,,,0.66,WUHU216HW,2013-09-16 00:23:00,
2013-09-15 19:28:00,61.6,57.4,29.55,East,90,0.7,2.2,86,0.00,,,0.66,WUHU216HW,2013-09-16 00:28:00,
2013-09-15 19:33:00,61.4,57.5,29.56,East,90,0.4,2.2,87,0.00,,,0.66,WUHU216HW,2013-09-16 00:33:00,
2013-09-15 19:38:00,61.4,57.5,29.56,ENE,68,0.4,0.7,87,0.00,,,0.66,WUHU216HW,2013-09-16 00:38:00,
2013-09-15 19:43:00,61.4,57.5,29.56,ENE,68,1.6,1.6,87,0.00,,,0.66,WUHU216HW,2013-09-16 00:43:00,
2013-09-15 19:48:00,61.2,57.3,29.56,NE,45,0.2,1.6,87,0.00,,,0.66,WUHU216HW,2013-09-16 00:48:00,
2013-09-15 19:53:00,61.2,57.3,29.56,NNE,23,0.2,1.6,87,0.00,,,0.66,WUHU216HW,2013-09-16 00:53:00,
2013-09-15 19:58:00,61.2,57.6,29.57,East,98,0.5,1.6,88,0.00,,,0.66,WUHU216HW,2013-09-16 00:58:00,
2013-09-15 20:03:00,61.2,57.3,29.57,ENE,59,0.5,2.0,87,0.00,,,0.66,WUHU216HW,2013-09-16 01:03:00,
2013-09-15 20:08:00,61.2,57.3,29.57,SSE,158,0.4,2.0,87,0.00,,,0.66,WUHU216HW,2013-09-16 01:08:00,
2013-09-15 20:13:00,61.2,57.3,29.58,ENE,68,2.0,2.0,87,0.00,,,0.66,WUHU216HW,2013-09-16 01:13:00,
2013-09-15 20:18:00,61.2,57.3,29.58,East,90,0.4,2.0,87,0.00,,,0.66,WUHU216HW,2013-09-16 01:18:00,
2013-09-15 20:23:00,61.0,57.1,29.58,WSW,248,0.0,0.4,87,0.00,,,0.66,WUHU216HW,2013-09-16 01:23:00,
2013-09-15 20:28:00,61.0,57.1,29.58,ENE,68,1.7,1.8,87,0.00,,,0.66,WUHU216HW,2013-09-16 01:28:00,
2013-09-15 20:33:00,61.0,57.1,29.59,ESE,113,2.0,2.0,87,0.00,,,0.66,WUHU216HW,2013-09-16 01:33:00,
2013-09-15 20:38:00,61.0,57.1,29.59,NE,45,0.4,2.0,87,0.00,,,0.66,WUHU216HW,2013-09-16 01:38:00,
2013-09-15 20:43:00,60.8,56.9,29.59,NE,45,1.6,1.8,87,0.00,,,0.66,WUHU216HW,2013-09-16 01:43:00,
2013-09-15 20:48:00,60.8,56.9,29.59,East,90,0.0,1.8,87,0.00,,,0.66,WUHU216HW,2013-09-16 01:48:00,
2013-09-15 20:53:00,60.8,56.9,29.60,ENE,62,1.6,1.8,87,0.00,,,0.66,WUHU216HW,2013-09-16 01:53:00,
2013-09-15 20:58:00,60.8,56.9,29.60,ENE,68,0.0,1.8,87,0.00,,,0.66,WUHU216HW,2013-09-16 01:58:00,
2013-09-15 21:03:00,60.8,56.9,29.60,North,0,0.0,1.1,87,0.00,,,0.66,WUHU216HW,2013-09-16 02:03:00,
2013-09-15 21:08:00,60.7,56.8,29.60,ESE,113,0.9,1.1,87,0.00,,,0.66,WUHU216HW,2013-09-16 02:08:00,
2013-09-15 21:13:00,60.5,56.6,29.60,ESE,113,0.4,1.1,87,0.00,,,0.66,WUHU216HW,2013-09-16 02:13:00,
2013-09-15 21:18:00,59.9,56.0,29.61,NE,45,0.2,0.9,87,0.00,,,0.66,WUHU216HW,2013-09-16 02:18:00,
2013-09-15 21:23:00,59.6,55.7,29.61,ENE,68,0.0,0.9,87,0.00,,,0.66,WUHU216HW,2013-09-16 02:23:00,
2013-09-15 21:28:00,58.9,55.1,29.61,ENE,68,0.0,0.2,87,0.00,,,0.66,WUHU216HW,2013-09-16 02:28:00,
2013-09-15 21:33:00,58.3,54.8,29.61,SE,135,0.3,0.4,88,0.00,,,0.66,WUHU216HW,2013-09-16 02:33:00,
2013-09-15 21:38:00,58.0,54.5,29.61,SE,135,0.2,0.4,88,0.00,,,0.66,WUHU216HW,2013-09-16 02:38:00,
2013-09-15 21:43:00,58.0,54.8,29.62,East,90,0.4,0.4,89,0.00,,,0.66,WUHU216HW,2013-09-16 02:43:00,
2013-09-15 21:48:00,57.4,53.9,29.62,ENE,68,0.0,0.4,88,0.00,,,0.66,WUHU216HW,2013-09-16 02:48:00,
2013-09-15 21:53:00,56.9,53.4,29.62,ENE,68,0.0,0.4,88,0.00,,,0.66,WUHU216HW,2013-09-16 02:53:00,
2013-09-15 21:58:00,56.5,53.0,29.61,ENE,68,0.0,0.0,88,0.00,,,0.66,WUHU216HW,2013-09-16 02:58:00,
2013-09-15 22:03:00,56.2,52.7,29.62,ENE,68,0.0,0.0,88,0.00,,,0.66,WUHU216HW,2013-09-16 03:03:00,
2013-09-15 22:08:00,55.8,52.6,29.62,ENE,68,0.0,0.0,89,0.00,,,0.66,WUHU216HW,2013-09-16 03:08:00,
2013-09-15 22:13:00,55.4,52.2,29.62,ENE,68,0.0,0.0,89,0.00,,,0.66,WUHU216HW,2013-09-16 03:13:00,
2013-09-15 22:18:00,55.1,51.9,29.62,ENE,68,0.0,0.0,89,0.00,,,0.66,WUHU216HW,2013-09-16 03:18:00,
2013-09-15 22:23:00,54.5,51.3,29.63,ENE,68,0.0,0.0,89,0.00,,,0.66,WUHU216HW,2013-09-16 03:23:00,
2013-09-15 22:28:00,54.4,51.2,29.63,ENE,68,0.0,0.0,89,0.00,,,0.66,WUHU216HW,2013-09-16 03:28:00,
2013-09-15 22:33:00,54.2,51.3,29.63,ENE,68,0.0,0.0,90,0.00,,,0.66,WUHU216HW,2013-09-16 03:33:00,
2013-09-15 22:38:00,54.2,51.3,29.63,ENE,68,0.0,0.0,90,0.00,,,0.66,WUHU216HW,2013-09-16 03:38:00,
2013-09-15 22:43:00,53.8,50.9,29.63,ENE,68,0.0,0.0,90,0.00,,,0.66,WUHU216HW,2013-09-16 03:43:00,
2013-09-15 22:48:00,53.3,50.4,29.63,ENE,68,0.0,0.0,90,0.00,,,0.66,WUHU216HW,2013-09-16 03:48:00,
2013-09-15 22:53:00,52.9,50.0,29.63,ENE,68,0.0,0.0,90,0.00,,,0.66,WUHU216HW,2013-09-16 03:53:00,
2013-09-15 22:58:00,52.6,49.7,29.63,ENE,68,0.0,0.0,90,0.00,,,0.66,WUHU216HW,2013-09-16 03:58:00,
2013-09-15 23:01:00,52.6,49.7,29.63,ENE,68,0.0,0.0,90,0.00,,,0.66,WUHU216HW,2013-09-16 04:01:00,
2013-09-15 23:06:00,52.4,49.5,29.63,ENE,68,0.0,0.0,90,0.00,,,0.66,WUHU216HW,2013-09-16 04:06:00,
2013-09-15 23:11:00,52.2,49.3,29.63,ENE,68,0.0,0.0,90,0.00,,,0.66,WUHU216HW,2013-09-16 04:11:00,
2013-09-15 23:16:00,52.0,49.2,29.63,ENE,68,0.0,0.0,90,0.00,,,0.66,WUHU216HW,2013-09-16 04:16:00,
2013-09-15 23:21:00,51.8,49.0,29.63,ENE,68,0.0,0.0,90,0.00,,,0.66,WUHU216HW,2013-09-16 04:21:00,
2013-09-15 23:26:00,51.5,48.7,29.63,ENE,68,0.0,0.0,90,0.00,,,0.66,WUHU216HW,2013-09-16 04:26:00,
2013-09-15 23:31:00,51.3,48.8,29.63,ENE,68,0.0,0.0,91,0.00,,,0.66,WUHU216HW,2013-09-16 04:31:00,
2013-09-15 23:36:00,51.3,48.5,29.63,ENE,68,0.0,0.0,90,0.00,,,0.66,WUHU216HW,2013-09-16 04:36:00,
2013-09-15 23:41:00,51.1,48.3,29.63,ENE,68,0.0,0.0,90,0.00,,,0.66,WUHU216HW,2013-09-16 04:41:00,
2013-09-15 23:46:00,50.9,48.1,29.64,ENE,68,0.0,0.0,90,0.00,,,0.66,WUHU216HW,2013-09-16 04:46:00,
2013-09-15 23:51:00,51.1,48.6,29.64,ENE,68,0.0,0.0,91,0.00,,,0.66,WUHU216HW,2013-09-16 04:51:00,
2013-09-15 23:56:00,50.8,48.0,29.64,ENE,68,0.0,0.0,90,0.00,,,0.66,WUHU216HW,2013-09-16 04:56:00,